Weather in Satis

Russia / Nizhny Novgorod Oblast'     55°01′19″N   43°49′05″E
temp.,
°C
wind,
m/s
gust,
m/s
humid.,
%
clouds,
%
prec.,
mm/h
press.,
hPa
HPBL,
m
7 may, fri
fri700:00+11s4147918 0.1 1010497
03:00+12s41373100 0.1 1009532
06:00+12s41173100 0.0 1009507
09:00+13ssw3971100 0.0 10091004
12:00+8nw5686100 0.3 1012664
15:00+7nw3688100 2.8 1014416
18:00+9s1279100 0.0 1014223
21:00+6s249546 0.0 101682
8 may, sat
sat800:00+5s24951 0.0 101780
03:00+4sse24965 0.0 101774
06:00+6sse26911 0.0 1017145
09:00+12sse4562100 0.0 1016775
12:00+14se5645100 0.0 10141316
15:00+14sse5747100 0.0 10121340
18:00+13s4962100 0.0 1010992
21:00+11sse41269100 0.0 1009549
9 may, sun
sun900:00+11s51488100 0.6 1008705
03:00+10sse41392100 1.4 1007621
06:00+11s51195100 1.8 1007651
09:00+12ssw4794100 1.8 1008700
12:00+11sw3589100 0.2 1010617
15:00+7w3793100 2.3 1012390
18:00+7wsw1396100 1.8 1014221
21:00+7wnw2598100 2.4 1017218
10 may, mon
mon1000:00+7nw3796100 0.0 1018405
03:00+6nnw3797100 0.0 1020440
06:00+6n4996100 0.0 1022501
09:00+6n51195100 0.3 1024503
12:00+9nne4788100 0.1 1025552
15:00+12nne687391 0.1 1026808
18:00+12nne497877 0.0 1026824
21:00+9nne411895 0.0 1028396
11 may, tue
tue1100:00+7ne412905 0.0 1028354
03:00+7ne413892 0.0 1029423
06:00+8ne513836 0.0 1029454
09:00+13ene59565 0.0 1029651
12:00+17ene56470 0.0 1029904
15:00+18ene56475 0.0 1028978
18:00+16ene48565 0.0 1028697
21:00+10ne310775 0.0 1029198